Flag for Canada Weather past 2 weeks in Québec, Quebec, Canada

Now
43 °F

Passing clouds.


Feels Like: 39 °F
Forecast: 44 / 64 °F
Wind: 6 mph from Northeast

Location: Quebec Weather Station

Current Time: Oct 2, 2014 at 7:10:41 AM

Latest Report: Oct 2, 2014 at 6:00 AM


Visibility: 15 mi

Pressure: 30.24 "Hg

Humidity: 87%

Dew point: 39 °F

Location of QuébecLocation

Historic Weather in Québec — Graph

°F

Québec temperature yesterday

Maximum temperature yesterday: 59 °F (at 3:00 PM)
Minimum temperature yesterday: 46 °F (at 12:00 AM)
Average temperature yesterday: 51 °F

Past Weeks' High & Low Weather Summary

 TemperatureHumidityPressure
High77 °F (Sep 27, 3:00 PM)100% (Sep 18, 12:00 AM)30.62 "Hg (Sep 18, 12:00 AM)
Low28 °F (Sep 19, 5:00 AM)30% (Sep 19, 4:00 PM)29.40 "Hg (Sep 22, 5:00 AM)
Average53 °F82%30.09 "Hg
* Reported Sep 17 6:00 AM — Oct 2 6:00 AM, Québec, Weather by CustomWeather, © 2014

Note: Actual official high and low records may vary slightly from our data, if they occured in-between our weather recording intervals... More about our weather records

Advertising

Québec weather history for previous 24 hours

 ConditionsComfort  
Time TempWeatherWind HumidityBarometerVisibility
6:00 AM
Oct 2
43 °FPassing clouds.6 mph87%30.24 "Hg15 mi
5:00 AM41 °FPassing clouds.6 mph87%30.23 "Hg15 mi
4:00 AM41 °FClear.9 mph93%30.23 "Hg15 mi
3:00 AM41 °FClear.7 mph93%30.23 "Hg15 mi
2:00 AM41 °FClear.6 mph87%30.24 "Hg15 mi
1:00 AM43 °FClear.6 mph81%30.23 "Hg15 mi
12:00 AM45 °FClear.7 mph81%30.22 "Hg15 mi
11:00 PM
Oct 1
48 °FClear.7 mph71%30.23 "Hg15 mi
10:00 PM46 °FClear.6 mph82%30.23 "Hg15 mi
9:00 PM48 °FClear.7 mph82%30.24 "Hg15 mi
8:00 PM52 °FClear.9 mph72%30.22 "Hg15 mi
7:00 PM54 °FPassing clouds.7 mph72%30.20 "Hg30 mi
6:00 PM55 °FPassing clouds.6 mph67%30.19 "Hg30 mi
5:00 PM57 °FPassing clouds.9 mph59%30.18 "Hg30 mi
4:00 PM59 °FPassing clouds.8 mph63%30.18 "Hg30 mi
3:00 PM59 °FPassing clouds.9 mph59%30.19 "Hg30 mi
2:00 PM57 °FPassing clouds.10 mph63%30.19 "Hg30 mi
1:00 PM55 °FPassing clouds.14 mph63%30.21 "Hg30 mi
12:00 PM54 °FPassing clouds.12 mph72%30.23 "Hg30 mi
11:00 AM54 °FPassing clouds.12 mph67%30.24 "Hg30 mi
10:00 AM52 °FPartly sunny.9 mph72%30.24 "Hg30 mi
9:00 AM50 °FPartly sunny.13 mph76%30.23 "Hg30 mi
8:00 AM48 °FPartly sunny.15 mph82%30.20 "Hg15 mi
7:00 AM48 °FMostly cloudy.13 mph87%30.19 "Hg10 mi
Weather by CustomWeather, © 2014

See weather overviewHow to use our weather pages